Florennes, Belgium

4:16 PM CEST on August 16, 2017 (GMT +0200)
Florennes Air Base

Weather History for EBFS - March, 2014

Change the Weather History Date:

Saturday, March 1, 2014

  Actual Average Record
Temperature  
Mean Temperature 38 °F -  
Max Temperature 40 °F 46 °F 53 °F (2009)
Min Temperature 33 °F 37 °F 23 °F (2004)
Degree Days  
Heating Degree Days 28    
Moisture  
Dew Point 36 °F    
Average Humidity 94    
Maximum Humidity 100    
Minimum Humidity 80    
Precipitation  
Precipitation 0.02 in - - ()
Sea Level Pressure  
Sea Level Pressure 29.55 in    
Wind  
Wind Speed 8 mph ()    
Max Wind Speed 12 mph    
Max Gust Speed -    
Visibility 6.5 miles    
Events Rain    
Averages and records for this station are not official NWS values.
T = Trace of Precipitation, MM = Missing Value Source: Averaged Metar Reports

Daily Weather History Graph

Daily Weather History Graph

Search for Another Location

Airport or City:

Trip Planner

Search our weather history database for the weather conditions in past years. The results will help you decide how hot, cold, wet, or windy it might be!

Date:

Astronomy

Mar. 01, 2014 Rise Set
Actual Time 7:25 AM CET 6:22 PM CET
Civil Twilight 6:52 AM CET 6:55 PM CET
Nautical Twilight 6:15 AM CET 7:33 PM CET
Astronomical Twilight 5:37 AM CET 8:11 PM CET
Moon 7:05 AM CET (3/1) 6:58 PM CET (3/1)
Length of Visible Light 12h 02m
Length of Day
10h 57m
New Moon, 0% of the Moon is Illuminated
Mar 1
New Moon
Mar 8
First Quarter
Mar 16
Full
Mar 24
Last Quarter
Mar 30
New

Hourly Weather History & Observations

Time (CET) Temp. Windchill Dew Point Humidity Pressure Visibility Wind Dir Wind Speed Gust Speed Precip Events Conditions
12:00 AM 36 °F - 35 °F 97% 29.55 in 16 mi SSE 6.7 mph - -   Scattered Clouds
12:25 AM 35.6 °F 28.6 °F 35.6 °F 100% 29.50 in 6.2 mi SSE 9.2 mph - N/A   Mostly Cloudy
12:55 AM 37.4 °F 30.8 °F 35.6 °F 93% 29.50 in 6.2 mi South 9.2 mph - N/A   Mostly Cloudy
1:00 AM 37 °F - 36 °F 94% 29.56 in 16 mi South 8.9 mph - -   Mostly Cloudy
1:25 AM 37.4 °F 30.8 °F 35.6 °F 93% 29.53 in 6.2 mi South 9.2 mph - N/A   Mostly Cloudy
1:55 AM 37.4 °F 30.3 °F 35.6 °F 93% 29.53 in 6.2 mi South 10.4 mph - N/A   Mostly Cloudy
2:00 AM 37 °F - 36 °F 93% 29.56 in 16 mi South 8.9 mph - -   Mostly Cloudy
2:25 AM 37.4 °F 30.3 °F 35.6 °F 93% 29.53 in 6.2 mi South 10.4 mph - N/A   Mostly Cloudy
2:55 AM 37.4 °F 30.8 °F 35.6 °F 93% 29.50 in 6.2 mi South 9.2 mph - N/A   Mostly Cloudy
3:00 AM 37 °F - 36 °F 96% 29.56 in 16 mi South 8.9 mph - -   Mostly Cloudy
3:25 AM 37.4 °F 31.4 °F 35.6 °F 93% 29.50 in 6.2 mi South 8.1 mph - N/A   Mostly Cloudy
3:55 AM 35.6 °F 31.7 °F 35.6 °F 100% 29.50 in 6.2 mi SSW 4.6 mph - N/A   Mostly Cloudy
4:00 AM 36 °F - 35 °F 97% 29.56 in 16 mi SSW 4.5 mph - -   Mostly Cloudy
4:23 AM 37.4 °F 32.8 °F 35.6 °F 93% 29.50 in 6.2 mi SSE 5.8 mph - N/A   Mostly Cloudy
4:25 AM 37.4 °F 32.1 °F 35.6 °F 93% 29.50 in 6.2 mi SE 6.9 mph - N/A   Mostly Cloudy
4:45 AM 37.4 °F 30.8 °F 35.6 °F 93% 29.50 in 6.2 mi SE 9.2 mph - N/A   Mostly Cloudy
4:55 AM 37.4 °F 30.3 °F 35.6 °F 93% 29.50 in 6.2 mi ESE 10.4 mph - N/A   Mostly Cloudy
5:00 AM 37 °F - 36 °F 94% 29.55 in 12 mi ESE 8.9 mph - -   Mostly Cloudy
5:25 AM 37.4 °F 32.1 °F 35.6 °F 93% 29.50 in 6.2 mi SSE 6.9 mph - N/A   Mostly Cloudy
5:55 AM 37.4 °F 32.8 °F 35.6 °F 93% 29.53 in 6.2 mi South 5.8 mph - N/A   Mostly Cloudy
6:00 AM 37 °F - 36 °F 93% 29.57 in 12 mi South 4.5 mph - -   Mostly Cloudy
6:23 AM 37.4 °F 30.8 °F 35.6 °F 93% 29.53 in 6.2 mi SE 9.2 mph - N/A   Mostly Cloudy
6:25 AM 37.4 °F 30.8 °F 35.6 °F 93% 29.53 in 6.2 mi SE 9.2 mph - N/A   Mostly Cloudy
6:50 AM 37.4 °F 30.3 °F 35.6 °F 93% 29.53 in 6.2 mi SE 10.4 mph - N/A   Mostly Cloudy
6:55 AM 37.4 °F 29.8 °F 35.6 °F 93% 29.53 in 6.2 mi SE 11.5 mph - N/A   Mostly Cloudy
7:00 AM 37 °F - 36 °F 96% 29.57 in 12 mi SE 11.2 mph - -   Mostly Cloudy
7:22 AM 37.4 °F 33.8 °F 35.6 °F 93% 29.53 in 6.2 mi South 4.6 mph - N/A   Mostly Cloudy
7:25 AM 37.4 °F 33.8 °F 35.6 °F 93% 29.53 in 6.2 mi South 4.6 mph - N/A   Mostly Cloudy
7:55 AM 37.4 °F 32.8 °F 37.4 °F 100% 29.53 in 6.2 mi SSE 5.8 mph - N/A   Mostly Cloudy
8:00 AM 37 °F - 37 °F 99% 29.57 in 10 mi SSE 4.5 mph - -   Mostly Cloudy
8:25 AM 37.4 °F 31.4 °F 37.4 °F 100% 29.53 in 6.2 mi SE 8.1 mph - N/A   Mostly Cloudy
8:53 AM 37.4 °F 30.8 °F 37.4 °F 100% 29.53 in - SE 9.2 mph - N/A   Mostly Cloudy
8:55 AM 37.4 °F 30.8 °F 37.4 °F 100% 29.53 in - SE 9.2 mph - N/A   Mostly Cloudy
9:00 AM 37 °F - 37 °F 100% 29.57 in 2 mi SE 8.9 mph - -   Mist
9:25 AM 37.4 °F 30.8 °F 37.4 °F 100% 29.53 in 4.3 mi SSE 9.2 mph - N/A   Mostly Cloudy
9:55 AM 39.2 °F 33.6 °F 37.4 °F 93% 29.53 in 6.2 mi South 8.1 mph - N/A   Mostly Cloudy
10:00 AM 38 °F - 36 °F 92% 29.57 in 9 mi South 6.7 mph - -   Mostly Cloudy
10:23 AM 39.2 °F 33.6 °F 37.4 °F 93% 29.53 in 6.2 mi South 8.1 mph - N/A   Mostly Cloudy
10:25 AM 39.2 °F 33.0 °F 37.4 °F 93% 29.53 in 6.2 mi South 9.2 mph - N/A   Mostly Cloudy
10:55 AM 39.2 °F 33.0 °F 35.6 °F 87% 29.53 in 6.2 mi South 9.2 mph - N/A   Mostly Cloudy
11:00 AM 40 °F - 36 °F 80% 29.57 in 12 mi South 8.9 mph - -   Mostly Cloudy
11:25 AM 39.2 °F 33.0 °F 35.6 °F 87% 29.53 in 6.2 mi South 9.2 mph - N/A   Mostly Cloudy
11:54 AM 39.2 °F 33.6 °F 35.6 °F 87% 29.53 in 6.2 mi South 8.1 mph - N/A   Mostly Cloudy
11:55 AM 39.2 °F 33.0 °F 35.6 °F 87% 29.53 in 6.2 mi South 9.2 mph - N/A   Mostly Cloudy
12:00 PM 39 °F - 36 °F 85% 29.57 in 12 mi South 8.9 mph - -   Mostly Cloudy
12:25 PM 41.0 °F 34.7 °F 37.4 °F 87% 29.53 in 6.2 mi South 10.4 mph - N/A   Mostly Cloudy
12:55 PM 39.2 °F 32.5 °F 35.6 °F 87% 29.53 in 6.2 mi South 10.4 mph - N/A   Mostly Cloudy
1:00 PM 40 °F - 36 °F 82% 29.56 in 12 mi South 11.2 mph - -   Mostly Cloudy
1:25 PM 39.2 °F 33.0 °F 35.6 °F 87% 29.53 in 6.2 mi South 9.2 mph - N/A   Mostly Cloudy
1:54 PM 39.2 °F 33.6 °F 35.6 °F 87% 29.53 in 6.2 mi South 8.1 mph - N/A Rain Light Rain
1:55 PM 39.2 °F 34.2 °F 35.6 °F 87% 29.53 in 6.2 mi South 6.9 mph - N/A Rain Light Rain
2:00 PM 39 °F - 36 °F 85% 29.57 in 7 mi South 6.7 mph - - Rain Light Rain
2:25 PM 39.2 °F 33.6 °F 37.4 °F 93% 29.53 in 3.7 mi SSW 8.1 mph - N/A Rain Light Rain
2:55 PM 39.2 °F 33.0 °F 37.4 °F 93% 29.53 in 3.7 mi SSW 9.2 mph - N/A   Mostly Cloudy
3:00 PM 39 °F - 37 °F 89% 29.56 in 4 mi SSW 8.9 mph - - Rain Light Rain
3:25 PM 39.2 °F 33.6 °F 37.4 °F 93% 29.53 in 2.5 mi SSW 8.1 mph - N/A Rain Light Rain
3:55 PM 39.2 °F 33.0 °F 37.4 °F 93% 29.53 in 4.3 mi SSW 9.2 mph - N/A   Mostly Cloudy
4:00 PM 38 °F - 37 °F 96% 29.57 in 4 mi SSW 8.9 mph - - Rain Light Rain
4:25 PM 37.4 °F 30.3 °F 37.4 °F 100% 29.53 in 4.3 mi SSW 10.4 mph - N/A Rain Light Rain
4:55 PM 37.4 °F 31.4 °F 37.4 °F 100% 29.53 in 3.7 mi SW 8.1 mph - N/A Rain Light Rain
5:00 PM 38 °F - 37 °F 94% 29.58 in 4 mi SW 6.7 mph - - Rain Light Rain
5:25 PM 37.4 °F 31.4 °F 37.4 °F 100% 29.53 in 4.3 mi West 8.1 mph - N/A Rain Light Rain
5:55 PM 37.4 °F 30.8 °F 37.4 °F 100% 29.53 in 3.7 mi WSW 9.2 mph - N/A   Mostly Cloudy
6:00 PM 38 °F - 36 °F 92% 29.58 in 4 mi WSW 8.9 mph - - Rain Light Rain
6:25 PM 37.4 °F 30.3 °F 37.4 °F 100% 29.53 in 3.7 mi West 10.4 mph - N/A   Mostly Cloudy
6:55 PM 37.4 °F 30.8 °F 37.4 °F 100% 29.56 in 3.1 mi West 9.2 mph - N/A   Light Drizzle
7:00 PM 38 °F - 37 °F 93% 29.60 in 3 mi West 8.9 mph - - Rain Light Drizzle
7:25 PM 37.4 °F 32.8 °F 37.4 °F 100% 29.56 in 5.0 mi West 5.8 mph - N/A   Mostly Cloudy
7:55 PM 37.4 °F 32.1 °F 35.6 °F 93% 29.56 in 6.2 mi WSW 6.9 mph - N/A   Mostly Cloudy
8:00 PM 37 °F - 36 °F 95% 29.61 in 6 mi WSW 6.7 mph - - Rain Light Drizzle
8:25 PM 37.4 °F 32.1 °F 35.6 °F 93% 29.56 in 6.2 mi WSW 6.9 mph - N/A   Mostly Cloudy
8:55 PM 37.4 °F 32.1 °F 35.6 °F 93% 29.56 in 6.2 mi WSW 6.9 mph - N/A   Mostly Cloudy
9:00 PM 37 °F - 36 °F 95% 29.62 in 6 mi WSW 6.7 mph - -   Mostly Cloudy
9:25 PM 37.4 °F 32.8 °F 35.6 °F 93% 29.56 in 5.0 mi WSW 5.8 mph - N/A   Mostly Cloudy
9:55 PM 37.4 °F 32.8 °F 35.6 °F 93% 29.59 in 4.3 mi West 5.8 mph - N/A   Mostly Cloudy
10:00 PM 37 °F - 36 °F 93% 29.63 in 4 mi West 4.5 mph - -   Partly Cloudy
10:25 PM 35.6 °F 31.7 °F 35.6 °F 100% 29.59 in 4.3 mi West 4.6 mph - N/A   Mostly Cloudy
10:55 PM 35.6 °F - 35.6 °F 100% 29.59 in 3.1 mi Variable 2.3 mph - N/A   Mostly Cloudy
11:00 PM 36 °F - 35 °F 94% 29.65 in 3 mi 2.2 mph - -   Mist
11:25 PM 35.6 °F 32.8 °F 33.8 °F 93% 29.59 in 3.1 mi South 3.5 mph - N/A   Mostly Cloudy
11:55 PM 33.8 °F 30.8 °F 33.8 °F 100% 29.59 in 2.8 mi South 3.5 mph - N/A   Scattered Clouds